Location: Santa Maria di Sala
(45.5070°N, 12.0300°E)
Time: 13:33:40
(UTC+02:00)

Envisat - Pass Details

Date: 18 April 2024
Orbit: 762 x 764 km, 98.3° (Epoch: 26 May)

Event Time Altitude Azimuth Distance (km) Brightness Sun altitude
Rises 05:31:49 0° 5° (N) 3,240 6.7 -8.8°
Reaches altitude 10° 05:34:19 10° 356° (N) 2,309 5.8 -8.4°
Maximum altitude 05:38:49 33° 294° (WNW) 1,266 3.8 -7.7°
Drops below altitude 10° 05:43:18 10° 231° (SW) 2,294 4.8 -7.0°
Enters shadow 05:44:06 - 228° (SW) 2,580 5.1 -6.9°
